Погода в Спасе

Россия / Ярославская область     58°12′32″N   39°53′25″E
темп.,
°C
ветер,
м/с
пор.,
м/с
влажн.,
%
обл.,
%
осадки,
мм/ч
давл.,
гПа
погр.,
м
15 апреля, чт
чт1500:00+11ссз258885 0.0 1018155
03:00+9ссв4690100 0.0 1019411
06:00+8ссв4890100 0.0 1020436
09:00+8ссв4887100 0.0 1022498
12:00+8св5979100 0.1 1023610
15:00+7св61179100 0.1 1024632
18:00+6св51279100 0.0 1025704
21:00+5всв41278100 0.0 1026730
16 апреля, пт
пт1600:00+4св5138472 0.0 1026649
03:00+3всв5137397 0.0 1027505
06:00+2всв41273100 0.0 1028479
09:00+5всв5105553 0.0 1028617
12:00+9всв584029 0.0 10281013
15:00+11всв573838 0.0 10281220
18:00+9всв484732 0.0 1028976
21:00+5всв4126230 0.0 1030354
17 апреля, сб
сб1700:00+3всв311715 0.0 1030302
03:00+2всв311765 0.0 1031263
06:00+1всв311765 0.0 1032276
09:00+7всв48514 0.0 1032618
12:00+10всв46400 0.0 10321209
15:00+12всв45370 0.0 10311438
18:00+10св36480 0.0 1030539
21:00+5св28690 0.0 1031143
18 апреля, вс
вс1800:00+3св27750 0.0 1032136
03:00+2св25790 0.0 103282
06:00+2св25790 0.0 103399
09:00+8св35570 0.0 1033484
12:00+11св34455 0.0 10331462
15:00+13всв34415 0.0 10321676
18:00+11всв25515 0.0 1032298
21:00+6всв227146 0.0 103341
19 апреля, пн
пн1900:00+5вюв267991 0.0 1034153
03:00+3вюв268745 0.0 1036128
06:00+2в248348 0.0 1037110
09:00+7в24595 0.0 1037579
12:00+10в344611 0.0 10361445
15:00+11вюв234073 0.0 10361807
18:00+10вюв244774 0.0 1036358
21:00+5вюв23656 0.0 103758